This demonstration page uses our WeatherBlox Daily Observations layout. Learn more.

Left ArrowRight Arrow

40.92945, -100.16068

Hourly Observations for May 3, 2020

Temp ( °F °C ) Dew Point ( °F °C ) Humidity (%) Winds ( mph kmh ) Pressure ( in mb ) Visibility ( mi km ) Precip ( " mm )
12:15 am 00:15 Mostly Cloudy 52 11.3 50 9.8 91 91 NNE 3 6 30.09 1019 10 16.0934 0 0
12:35 am 00:35 Partly Cloudy 52 11 49 9.3 89 89 NW 5 7 30.11 1020 10 16.0934 0 0
12:55 am 00:55 Partly Cloudy 52 10.9 49 9.3 90 90 Calm 30.09 1019 10 16.0934 0 0
1:15 am 01:15 Partly Cloudy 50 10 48 9.1 94 94 E 3 6 30.06 1018 10 16.0934 0 0
1:35 am 01:35 Clear 51 10.4 48 9 91 91 Calm 30.06 1018 10 16.0934 0 0
1:55 am 01:55 Clear 50 10 48 8.8 92 92 Calm 30.06 1018 10 16.0934 0 0
2:15 am 02:15 Mostly Cloudy 50 10.1 48 8.8 92 92 W 3 6 30.08 1019 10 16.0934 0 0
2:35 am 02:35 Partly Cloudy 50 10.2 48 9 92 92 Calm 30.07 1018 10 16.0934 0 0
2:55 am 02:55 Partly Cloudy 50 10.2 48 8.9 92 92 Calm 30.07 1018 10 16.0934 0 0
3:15 am 03:15 Cloudy 50 10.2 49 9.2 94 94 Calm 30.06 1018 10 16.0934 0 0
3:35 am 03:35 Cloudy 50 10.2 49 9.2 94 94 Calm 30.06 1018 10 16.0934 0 0
3:55 am 03:55 Mostly Cloudy 50 10 48 9.1 94 94 Calm 30.05 1018 10 16.0934 0 0
4:15 am 04:15 Partly Cloudy 48 9.1 48 8.8 98 98 Calm 30.05 1018 10 16.0934 0 0
4:35 am 04:35 Clear 49 9.3 47 8.6 95 95 Calm 30.06 1018 10 16.0934 0 0
4:55 am 04:55 Partly Cloudy 48 9 47 8.2 95 95 Calm 30.06 1018 10 16.0934 0 0
5:15 am 05:15 Mostly Cloudy 47 8.5 47 8.1 97 97 NW 3 6 30.08 1018 10 16.0934 0 0
5:35 am 05:35 Mostly Cloudy 46 7.9 46 7.7 99 99 NW 7 11 30.08 1019 10 16.0934 0 0
5:55 am 05:55 Cloudy 48 9 47 8.5 97 97 NW 6 9 30.08 1019 10 16.0934 0 0
6:15 am 06:15 Cloudy 49 9.6 48 9 96 96 WNW 5 7 30.07 1018 10 16.0934 0 0
6:35 am 06:35 Cloudy 50 10 48 8.8 92 92 Calm 30.06 1018 10 16.0934 0 0
6:55 am 06:55 Mostly Cloudy 49 9.4 47 8.6 95 95 W 3 6 30.08 1019 10 16.0934 0 0
7:15 am 07:15 Partly Cloudy 47 8.5 46 8 97 97 Calm 30.09 1019 10 16.0934 0 0
7:35 am 07:35 Sunny 48 9.1 47 8.6 97 97 WSW 3 6 30.09 1019 10 16.0934 0 0
7:55 am 07:55 Mostly Cloudy 52 11 49 9.2 89 89 Calm 30.06 1018 10 16.0934 0 0
8:15 am 08:15 Partly Cloudy 53 11.8 49 9.3 85 85 NNW 3 6 30.05 1018 10 16.0934 0 0
8:35 am 08:35 Sunny 55 12.7 48 9.1 79 79 NNE 3 6 30.04 1017 10 16.0934 0 0
8:55 am 08:55 Sunny 57 13.7 46 7.7 67 67 NNE 5 7 30.03 1017 10 16.0934 0 0
9:15 am 09:15 Sunny 59 14.8 44 6.6 58 58 NNE 3 6 30.03 1017 10 16.0934 0 0
9:35 am 09:35 Sunny 60 15.6 44 6.7 56 56 NE 3 6 30.01 1016 10 16.0934 0 0
9:55 am 09:55 Partly Cloudy 62 16.5 44 6.8 53 53 Calm 30.01 1016 10 16.0934 0 0
10:15 am 10:15 Sunny 63 17.1 44 6.4 50 50 S 3 6 30.01 1016 10 16.0934 0 0
10:35 am 10:35 Sunny 64 17.5 43 6.3 48 48 Calm 30 1016 10 16.0934 0 0
10:55 am 10:55 Partly Cloudy 64 17.8 42 5.7 45 45 Calm 29.99 1016 10 16.0934 0 0
11:15 am 11:15 Mostly Cloudy 64 17.9 43 6 46 46 NE 3 6 29.99 1016 10 16.0934 0 0
11:35 am 11:35 Cloudy 65 18.2 43 6 45 45 Calm 29.99 1015 10 16.0934 0 0
11:55 am 11:55 Mostly Cloudy 67 19.5 44 6.6 43 43 ESE 8 13 29.97 1015 10 16.0934 0 0
12:15 pm 12:15 Mostly Cloudy 69 20.4 44 6.6 41 41 SE 6 9 29.96 1015 10 16.0934 0 0
12:35 pm 12:35 Mostly Cloudy 68 20.2 43 5.9 39 39 SSE 5 7 29.95 1014 10 16.0934 0 0
12:55 pm 12:55 Cloudy 69 20.8 43 6.1 39 39 SE 9 15 29.94 1014 10 16.0934 0 0
1:15 pm 13:15 Mostly Cloudy with Haze 70 21.2 45 7.1 40 40 E 8 13 29.92 1013 2.5 4.02335 0 0
1:35 pm 13:35 Partly Cloudy 72 22 45 7.4 39 39 ESE 7 11 29.91 1013 10 16.0934 0 0
1:55 pm 13:55 Mostly Cloudy 73 22.9 47 8.2 39 39 E 8 13 29.89 1012 10 16.0934 0 0
2:15 pm 14:15 Partly Cloudy 73 22.8 46 7.7 38 38 SE 7 11 29.89 1012 10 16.0934 0 0
2:35 pm 14:35 Mostly Cloudy 74 23.3 47 8.2 38 38 E 7 11 29.87 1012 10 16.0934 0 0
2:55 pm 14:55 Cloudy 74 23.1 47 8.6 40 40 S 5 7 29.88 1012 7 11.26538 0 0
3:15 pm 15:15 Cloudy 73 22.5 46 8 39 39 E 3 6 29.87 1012 10 16.0934 0 0
3:35 pm 15:35 Cloudy 75 24.1 48 8.7 38 38 ENE 6 9 29.86 1011 10 16.0934 0 0
3:55 pm 15:55 Mostly Cloudy 76 24.2 47 8.4 37 37 ESE 8 13 29.85 1011 10 16.0934 0 0
4:15 pm 16:15 Mostly Cloudy 73 22.8 47 8.3 40 40 E 6 9 29.85 1011 10 16.0934 0 0
4:35 pm 16:35 Mostly Cloudy 76 24.5 47 8.6 36 36 ESE 14 22 29.82 1010 10 16.0934 0 0
4:55 pm 16:55 Cloudy 73 23 47 8.3 39 39 SE 8 13 29.83 1010 10 16.0934 0 0
5:15 pm 17:15 Partly Cloudy 73 22.7 46 7.6 38 38 SE 9 15 29.84 1010 10 16.0934 0 0
5:35 pm 17:35 Mostly Cloudy 73 22.8 47 8.1 39 39 ESE 10 17 29.83 1010 10 16.0934 0 0
5:55 pm 17:55 Partly Cloudy 72 22.3 46 8 40 40 E 10 17 29.82 1010 10 16.0934 0 0
6:15 pm 18:15 Partly Cloudy 72 22.2 46 7.6 39 39 E 9 15 29.83 1010 10 16.0934 0 0
6:35 pm 18:35 Partly Cloudy 72 22.3 45 7.2 38 38 ESE 7 11 29.83 1010 10 16.0934 0 0
6:55 pm 18:55 Sunny 71 21.9 46 8 41 41 ESE 7 11 29.83 1010 10 16.0934 0 0
7:15 pm 19:15 Sunny 72 22.1 45 7.1 38 38 ESE 9 15 29.83 1010 10 16.0934 0 0
7:35 pm 19:35 Partly Cloudy 71 21.7 45 7.2 39 39 ESE 12 19 29.82 1010 10 16.0934 0 0
7:55 pm 19:55 Partly Cloudy 71 21.5 45 7.3 40 40 ESE 13 20 29.83 1010 10 16.0934 0 0
8:15 pm 20:15 Partly Cloudy 70 21.2 46 7.5 41 41 ESE 10 17 29.85 1011 10 16.0934 0 0
8:35 pm 20:35 Mostly Cloudy 69 20.5 46 7.6 43 43 SE 9 15 29.85 1011 10 16.0934 0 0
8:55 pm 20:55 Partly Cloudy 66 18.9 46 7.6 48 48 SE 9 15 29.85 1011 10 16.0934 0 0
9:15 pm 21:15 Partly Cloudy 66 19 46 7.8 48 48 ESE 8 13 29.85 1011 10 16.0934 0 0
9:35 pm 21:35 Partly Cloudy 66 19 46 7.9 49 49 SE 9 15 29.87 1012 10 16.0934 0 0
9:55 pm 21:55 Mostly Cloudy 67 19.2 46 7.7 47 47 SE 9 15 29.86 1011 10 16.0934 0 0
10:15 pm 22:15 Cloudy 66 18.8 47 8.4 51 51 SE 8 13 29.87 1012 10 16.0934 0 0
10:35 pm 22:35 Cloudy with Light Rain 64 17.5 50 10.2 62 62 SSE 6 9 29.9 1013 10 16.0934 0 0
10:55 pm 22:55 Cloudy with Rain 61 15.9 53 11.7 76 76 SSE 18 30 29.92 1013 10 16.0934 0.03 0.762
11:15 pm 23:15 Cloudy with Rain 60 15.3 52 11.3 77 77 S 18 30 29.92 1013 7 11.26538 0.04 1.016
11:35 pm 23:35 Cloudy with Light Rain 59 15 53 11.6 80 80 SSE 15 24 29.92 1013 10 16.0934 0.06 1.524
11:55 pm 23:55 Cloudy with Light Rain 59 15.2 53 11.5 79 79 SSE 13 20 29.9 1013 10 16.0934 0.07 1.778

Powered by AerisWeather